FW6155 Weather Reports


time (UTC)temp
C
wind
direction
speed
KPH
gust
KPH
rain 1hr
cm
rain 24hr
cm
rain mn
cm
humidity
%
barometer
mb
20260505130105 13 0.0 0.0 0.00 0.00 0.00 84 1015.5
20260505124549 12 0.0 0.0 0.00 0.00 0.00 84 1015.5
20260505123051 12 0.0 0.0 0.00 0.00 0.00 84 1015.4
20260505121548 12 0.0 0.0 0.00 0.00 0.00 84 1015.3
20260505120058 12 0.0 0.0 0.00 0.00 0.00 84 1015.3
20260505114552 12 0.0 0.0 0.00 0.00 0.00 84 1015.3
20260505113050 12 0.0 0.0 0.00 0.00 0.00 84 1015.1
20260505111543 12 0.0 0.0 0.00 0.00 0.00 85 1015.1
20260505101544 12 0.0 0.0 0.00 0.00 0.00 84 1014.8
20260505100044 12 0.0 0.0 0.00 0.00 0.00 84 1014.7
20260505094544 12 0.0 0.0 0.00 0.00 0.00 85 1014.5
20260505093052 12 0.0 0.0 0.00 0.00 0.00 85 1014.5
20260505091539 12 0.0 0.0 0.00 0.00 0.00 85 1014.4
20260505090047 12 0.0 0.0 0.00 0.00 0.00 85 1014.1
20260505084545 12 0.0 0.0 0.00 0.00 0.00 84 1014.0
20260505083045 13 0.0 0.0 0.00 0.00 0.00 84 1014.1
20260505081553 13 0.0 0.0 0.00 0.00 0.00 83 1014.0
20260505080047 13 0.0 0.0 0.00 0.00 0.00 83 1013.9
20260505074539 13 0.0 0.0 0.00 0.00 0.00 83 1013.8
20260505073049 13 0.0 0.0 0.00 0.00 0.00 83 1013.7
20260505071551 13 0.0 0.0 0.00 0.00 0.00 82 1013.5
20260505070043 13 0.0 0.0 0.00 0.00 0.00 82 1013.5
20260505064543 13 0.0 0.0 0.00 0.00 0.00 81 1013.3
20260505063041 14 0.0 0.0 0.00 0.00 0.00 81 1013.1
20260505061548 14 0.0 0.0 0.00 0.00 0.00 80 1012.9
20260505060049 15 0.0 0.0 0.00 0.00 0.00 79 1012.7
20260505054554 15 0.0 0.0 0.00 0.00 0.00 78 1012.7
20260505053056 16 0.0 0.0 0.00 0.00 0.00 76 1012.4
20260505051550 16 0.0 0.0 0.00 0.00 0.00 74 1012.5
20260505041546 18 0.0 0.0 0.00 0.00 0.00 67 1011.6
20260505040045 19 0.0 0.0 0.00 0.00 0.00 66 1011.5
20260505034546 20 0.0 0.0 0.00 0.00 0.00 64 1011.1
20260505033048 20 0.0 0.0 0.00 0.00 0.00 62 1010.7
20260505031546 21 0.0 0.0 0.00 0.00 0.00 60 1010.5
20260505030100 21 0.0 0.0 0.00 0.00 0.00 60 1010.3
20260505024545 21 0.0 0.0 0.00 0.00 0.00 61 1010.1
20260505023048 22 0.0 0.0 0.00 0.00 0.00 60 1010.2
20260505021547 22 0.0 0.0 0.00 0.00 0.00 57 1010.2
20260505020047 22 0.0 0.0 0.00 0.00 0.00 56 1010.1
20260505014546 23 0.0 0.0 0.00 0.00 0.00 55 1010.1
20260505013043 23 0.0 0.0 0.00 0.00 0.00 54 1010.2
20260505011550 23 0.0 0.0 0.00 0.00 0.00 50 1010.1
20260505010045 24 0.0 0.0 0.00 0.00 0.00 47 1010.1
20260505004549 24 0.0 0.0 0.00 0.00 0.00 47 1010.2
20260505003043 24 0.0 0.0 0.00 0.00 0.00 46 1010.2
20260505001544 24 0.0 0.0 0.00 0.00 0.00 45 1010.4
20260505000042 24 0.0 0.0 0.00 0.00 0.00 43 1010.4
20260504234542 24 0.0 0.0 0.00 0.00 0.00 41 1010.3
20260504233045 24 0.0 0.0 0.00 0.00 0.00 41 1010.4
20260504231544 24 0.0 0.0 0.00 0.00 0.00 42 1010.3
20260504230043 25 0.0 0.0 0.00 0.00 0.00 40 1010.4
20260504224542 24 0.0 0.0 0.00 0.00 0.00 41 1010.9
20260504223047 24 0.0 0.0 0.00 0.00 0.00 40 1010.9
20260504221545 24 0.0 0.0 0.00 0.00 0.00 43 1011.0
20260504220110 24 0.0 0.0 0.00 0.00 0.00 43 1011.3
20260504214551 24 0.0 0.0 0.00 0.00 0.00 41 1011.4
20260504213047 24 0.0 0.0 0.00 0.00 0.00 42 1011.4
20260504211551 24 0.0 0.0 0.00 0.00 0.00 44 1011.4
20260504210045 24 0.0 0.0 0.00 0.00 0.00 46 1011.5
20260504204544 24 0.0 0.0 0.00 0.00 0.00 43 1011.6
20260504203043 24 0.0 0.0 0.00 0.00 0.00 43 1011.6
20260504201547 24 0.0 0.0 0.00 0.00 0.00 46 1011.6
20260504200050 24 0.0 0.0 0.00 0.00 0.00 49 1011.6
20260504194547 23 0.0 0.0 0.00 0.00 0.00 45 1011.6
20260504193043 23 0.0 0.0 0.00 0.00 0.00 47 1011.8
20260504191553 23 0.0 0.0 0.00 0.00 0.00 47 1011.8
20260504190057 23 0.0 0.0 0.00 0.00 0.00 49 1011.9
20260504184559 22 0.0 0.0 0.00 0.00 0.00 52 1011.9
20260504183050 22 0.0 0.0 0.00 0.00 0.00 53 1012.1
20260504181547 22 0.0 0.0 0.00 0.00 0.00 54 1012.1
20260504180052 21 0.0 0.0 0.00 0.00 0.00 57 1012.1
20260504174547 21 0.0 0.0 0.00 0.00 0.00 59 1012.2
20260504173047 20 0.0 0.0 0.00 0.00 0.00 60 1012.1
20260504171544 20 0.0 0.0 0.00 0.00 0.00 61 1012.0